Temperature
4 3 3 2 2 1 1 -0 -1 -2 -1 -0 -1 -1 -1 -1 -2 -2 -2 -2 -2 -2 -2 -2 -2 -3 -3 -3 -3 -2 -2 -2 -2 -2 -1 -1 -0 0
3 3 2 2 1 1 0 -0 -1 -2 -2 -2 -2 -2 -2 -2 -3 -3 -3 -3 -3 -3 -3 -3 -3 -3 -3 -3 -3 -3 -3 -3 -2 -2 -2 -1 -1 -0
3 2 2 1 1 0 -0 -1 -1 -2 -3 -2 -2 -3 -3 -3 -3 -3 -3 -3 -4 -4 -4 -4 -4 -3 -3 -3 -3 -3 -3 -3 -3 -3 -2 -2 -1 -1
2 2 1 1 0 -0 -1 -1 -2 -2 -3 -3 -3 -3 -3 -4 -4 -4 -4 -4 -4 -4 -4 -4 -4 -4 -4 -4 -4 -4 -4 -3 -3 -3 -3 -3 -2 -2
2 1 1 0 -0 -1 -1 -2 -2 -3 -3 -4 -4 -4 -4 -4 -4 -5 -5 -5 -5 -5 -5 -4 -4 -4 -4 -4 -4 -4 -4 -4 -4 -4 -3 -3 -3 -3
1 1 0 -0 -1 -1 -2 -2 -3 -3 -3 -4 -4 -4 -5 -5 -5 -5 -5 -5 -5 -5 -5 -5 -5 -5 -4 -4 -4 -4 -4 -4 -4 -4 -4 -4 -4 -3
1 0 -0 -1 -1 -2 -3 -3 -3 -4 -4 -4 -5 -5 -5 -5 -5 -5 -6 -6 -5 -5 -5 -5 -5 -5 -5 -5 -5 -5 -5 -5 -5 -4 -4 -4 -4 -4
-0 -1 -1 -2 -2 -3 -3 -3 -4 -4 -4 -5 -5 -5 -5 -5 -6 -6 -6 -6 -6 -5 -6 -5 -5 -5 -5 -5 -5 -5 -5 -5 -5 -5 -4 -4 -4 -4
-1 -1 -2 -2 -3 -3 -4 -4 -4 -4 -5 -5 -5 -5 -6 -6 -6 -6 -6 -6 -6 -6 -6 -6 -6 -6 -5 -5 -5 -5 -5 -5 -5 -5 -5 -5 -4 -4
-1 -2 -2 -3 -3 -4 -4 -4 -5 -5 -5 -5 -6 -6 -6 -6 -6 -6 -6 -6 -6 -6 -6 -6 -6 -6 -6 -5 -5 -5 -6 -5 -5 -5 -5 -5 -5 -4
-2 -3 -3 -4 -4 -4 -5 -5 -5 -5 -6 -6 -6 -6 -6 -6 -6 -6 -6 -6 -7 -6 -6 -7 -6 -6 -6 -6 -6 -6 -6 -6 -6 -6 -5 -5 -5 -4
-3 -3 -4 -4 -5 -5 -5 -6 -6 -6 -6 -6 -6 -6 -6 -6 -6 -6 -7 -7 -7 -7 -7 -7 -7 -7 -7 -6 -6 -6 -6 -6 -6 -6 -6 -5 -5 -5
-4 -4 -4 -5 -5 -6 -6 -6 -6 -6 -6 -6 -6 -6 -6 -6 -6 -7 -7 -7 -7 -8 -7 -8 -8 -8 -8 -8 -7 -7 -7 -7 -6 -6 -6 -6 -5 -5
-4 -5 -5 -6 -6 -6 -6 -6 -6 -6 -7 -7 -7 -7 -7 -7 -7 -7 -7 -7 -8 -8 -8 -8 -8 -8 -8 -8 -8 -7 -7 -7 -7 -6 -6 -6 -6 -5
-5 -5 -6 -6 -6 -7 -7 -7 -7 -7 -7 -7 -7 -7 -7 -8 -8 -8 -8 -8 -8 -8 -8 -8 -8 -8 -8 -8 -8 -8 -7 -7 -7 -7 -6 -6 -6 -6
-6 -6 -6 -7 -7 -7 -7 -7 -7 -7 -8 -8 -8 -8 -8 -8 -8 -8 -9 -9 -8 -8 -8 -8 -8 -8 -8 -8 -8 -8 -8 -8 -7 -7 -7 -7 -6 -6
-6 -7 -7 -7 -7 -8 -8 -8 -8 -8 -8 -8 -8 -8 -9 -9 -9 -9 -9 -9 -9 -9 -9 -8 -8 -9 -8 -8 -8 -8 -8 -7 -7 -7 -7 -7 -6 -6
-7 -7 -8 -8 -8 -8 -9 -8 -8 -8 -9 -9 -9 -9 -9 -9 -9 -9 -10 -10 -9 -9 -9 -9 -9 -9 -8 -8 -8 -8 -8 -8 -7 -7 -7 -7 -7 -6
-8 -8 -8 -9 -9 -9 -9 -9 -9 -9 -9 -9 -9 -10 -10 -10 -10 -10 -10 -10 -10 -10 -9 -9 -9 -9 -9 -9 -8 -8 -8 -8 -7 -7 -7 -7 -7 -6
-8 -9 -9 -9 -9 -10 -10 -10 -10 -10 -10 -10 -10 -10 -10 -10 -10 -10 -10 -10 -10 -10 -10 -9 -9 -9 -9 -9 -9 -8 -8 -8 -8 -8 -7 -7 -7 -7
-9 -9 -10 -10 -10 -10 -10 -10 -10 -10 -10 -10 -10 -10 -11 -11 -11 -11 -11 -10 -10 -10 -10 -10 -10 -9 -9 -9 -9 -9 -8 -8 -8 -8 -8 -7 -7 -7
-10 -10 -10 -10 -10 -10 -10 -11 -11 -11 -11 -11 -11 -11 -11 -11 -11 -11 -11 -11 -11 -10 -10 -10 -10 -10 -9 -9 -9 -9 -8 -8 -8 -8 -8 -8 -7 -7
-10 -11 -11 -11 -11 -11 -11 -11 -11 -11 -11 -11 -11 -11 -11 -11 -11 -11 -11 -11 -11 -11 -11 -10 -10 -10 -10 -10 -9 -9 -9 -9 -8 -8 -8 -8 -7 -7
Wind_Speed
6 7 6 6 6 6 6 6 8 13 12 7 5 5 10 14 18 18 16 22 27 27 28 28 28 29 28 28 28 28 29 29 29 29 29 30 30 30
6 7 7 6 6 6 6 7 7 10 14 7 6 7 9 14 20 18 18 26 27 28 29 29 29 29 29 29 29 29 29 29 29 29 29 30 30 30
7 8 9 8 7 7 7 7 7 8 15 13 7 7 8 9 12 15 18 17 19 26 28 29 29 29 29 29 29 29 29 29 29 29 29 30 29 29
8 8 9 8 8 8 7 8 8 9 12 17 10 7 9 9 10 10 13 16 16 24 27 28 28 28 28 28 28 29 29 29 28 28 29 29 29 29
8 9 9 9 10 8 9 9 9 10 9 12 13 8 7 8 10 11 12 10 16 21 24 25 26 26 27 27 27 28 28 28 27 28 28 28 28 28
8 9 9 10 11 11 10 10 10 10 9 11 12 10 9 8 8 9 11 8 10 13 18 21 24 26 26 27 27 27 27 27 27 27 27 26 26 26
9 10 11 14 18 16 13 10 10 9 9 11 12 11 10 7 8 8 12 10 10 9 10 11 11 10 12 21 24 26 27 27 27 27 26 26 26 25
10 10 11 14 18 23 25 24 19 14 11 11 12 13 12 10 9 10 11 12 11 5 7 9 8 9 8 9 21 26 27 27 26 26 25 25 25 24
10 10 12 12 17 12 18 23 22 25 24 16 14 14 13 11 11 12 11 12 13 8 8 11 7 10 9 15 24 26 26 26 25 24 24 24 24 23
10 11 11 11 12 14 12 12 12 13 16 14 12 13 13 12 12 13 14 13 11 8 8 11 8 9 11 9 21 24 23 23 22 22 22 21 21 20
10 10 11 11 20 24 16 13 12 11 18 23 25 23 26 25 20 11 9 10 12 8 5 6 7 7 7 8 12 19 20 21 22 21 20 19 19 17
9 9 16 18 22 24 15 12 14 13 12 14 16 18 16 17 21 12 8 10 10 7 4 4 5 4 5 5 5 6 10 16 19 20 19 18 17 9
8 7 8 21 24 25 22 14 19 19 12 11 10 10 9 8 8 8 7 8 10 9 5 3 5 5 6 6 5 6 6 6 8 10 14 15 15 11
9 7 10 22 25 26 21 21 27 23 10 9 9 8 7 7 6 7 8 8 8 10 8 6 6 6 7 9 7 5 5 6 6 7 6 10 11 12
11 18 22 26 25 18 22 26 22 11 8 9 9 7 6 6 6 6 6 7 8 9 9 8 8 8 8 9 7 6 6 6 5 5 5 5 5 5
12 17 23 24 19 19 19 15 9 8 8 8 7 6 5 5 5 5 5 5 6 7 7 9 8 9 8 8 8 8 7 5 5 5 5 4 4 4
12 9 8 8 8 8 8 9 7 7 7 5 5 6 5 6 6 5 5 5 5 6 6 5 6 6 8 8 8 8 7 7 6 5 4 5 4 3
17 9 9 9 10 9 9 8 6 6 5 5 5 5 6 6 6 5 5 5 6 6 6 5 4 4 4 5 8 8 6 6 5 4 4 4 4 3
12 8 9 9 9 9 8 8 7 6 5 5 5 5 6 6 6 6 6 6 6 6 6 5 4 4 5 6 4 5 5 5 4 3 3 3 4 4
7 8 9 9 8 8 8 7 7 6 5 5 5 5 5 6 6 7 6 6 6 6 6 5 4 4 5 5 4 4 6 4 3 4 3 3 3 5
8 8 8 8 8 8 7 7 7 6 6 5 5 5 5 6 7 7 7 10 8 6 7 6 5 7 4 3 4 4 4 5 5 3 2 2 3 2
8 8 8 8 8 7 7 7 6 7 6 6 6 6 5 6 7 8 7 6 6 6 6 5 4 4 3 4 5 4 4 4 5 6 5 4 2 1
8 8 8 8 8 7 6 7 8 7 7 6 6 6 6 6 6 6 6 6 6 6 5 5 4 3 4 4 4 4 4 4 3 2 2 3 4 5
Wind_Direction
239 243 246 249 247 249 251 251 270 290 290 271 272 281 296 296 297 298 296 299 299 298 297 297 297 296 296 295 294 293 292 290 289 287 285 284 282 280
240 246 252 253 252 249 249 250 248 266 281 274 269 277 286 293 295 299 299 299 298 297 296 296 295 295 295 295 294 293 291 290 288 286 285 283 281 280
247 249 253 254 256 254 252 252 253 257 275 283 271 275 278 283 291 290 290 289 289 292 293 293 293 293 293 293 293 292 291 290 289 287 285 283 282 280
251 253 258 262 260 257 256 256 256 255 268 282 284 279 275 279 280 279 289 290 288 291 292 291 291 292 292 293 294 293 292 291 289 288 285 283 282 281
250 254 259 262 265 263 261 262 262 266 263 275 283 281 278 281 284 285 282 283 286 289 290 290 290 291 292 294 295 294 293 292 290 288 286 283 282 281
253 256 260 260 263 265 266 263 264 265 265 271 279 282 280 276 278 284 287 277 280 287 287 288 288 289 291 293 294 294 293 292 290 289 287 285 282 280
259 259 262 266 268 271 273 267 262 265 267 271 277 281 280 280 276 278 285 287 280 275 278 278 281 278 283 287 290 290 290 290 289 288 286 285 282 278
262 264 268 272 275 278 279 280 276 272 271 272 277 278 279 275 277 279 283 288 288 261 266 276 274 275 274 274 283 287 289 290 290 289 288 286 284 280
261 267 275 277 282 276 279 281 281 279 277 276 276 276 278 276 276 277 274 276 281 277 282 284 273 274 276 282 287 289 291 291 292 292 290 287 285 281
259 262 268 272 275 281 277 274 268 271 274 276 271 271 272 272 267 271 275 277 275 270 267 279 279 275 281 279 286 288 292 295 297 297 296 292 290 287
261 264 270 272 281 287 287 282 280 276 280 279 277 278 279 283 284 284 281 284 287 280 255 261 276 283 280 276 279 287 294 299 299 299 298 297 295 291
267 264 274 280 286 289 287 283 283 281 278 278 277 280 281 281 284 279 274 279 286 286 255 252 274 293 289 270 271 286 295 297 300 300 299 298 298 297
275 273 271 286 289 290 289 284 283 286 280 275 273 269 267 264 264 261 253 257 272 275 266 265 277 277 274 288 287 281 282 289 297 298 300 299 299 299
283 280 280 290 292 292 292 288 290 292 286 280 276 270 267 266 265 262 257 253 256 263 266 261 269 273 280 285 286 286 289 288 286 289 290 297 300 301
285 289 292 295 296 295 292 292 292 289 280 278 275 270 263 263 270 274 270 266 267 268 270 261 261 267 267 275 280 284 295 293 282 284 291 295 295 298
289 289 293 293 293 291 291 290 281 271 273 271 271 268 268 272 274 271 273 276 280 283 272 263 254 258 269 271 275 281 281 282 294 295 292 292 294 289
293 288 286 288 284 282 280 278 272 270 276 267 271 277 279 281 279 271 265 272 275 282 290 283 261 253 257 266 274 274 276 278 277 285 292 290 289 293
301 293 292 290 289 288 288 285 278 271 265 265 268 271 279 281 283 281 272 268 273 278 281 282 282 286 286 267 251 266 272 278 285 288 286 284 291 301
297 288 286 286 286 286 283 281 279 272 264 262 264 270 276 277 278 280 278 272 272 275 278 276 269 268 282 289 281 265 281 286 289 287 281 275 280 291
279 280 281 281 280 282 282 278 277 273 264 259 260 264 268 272 275 276 275 270 273 278 283 274 260 257 263 276 284 288 285 279 282 285 285 284 283 293
282 280 279 280 280 279 279 277 274 271 266 259 257 257 260 265 270 272 273 276 278 275 278 276 266 275 270 269 277 279 286 285 279 271 281 292 295 307
283 283 281 279 279 276 275 274 275 272 265 258 256 256 255 259 266 269 269 269 268 269 272 274 274 276 259 259 271 278 289 301 296 286 275 262 251 267
281 282 282 280 277 275 274 271 269 269 264 257 255 256 255 259 262 264 264 264 265 268 272 274 272 266 259 253 260 270 279 288 294 308 308 291 273 261
Height
1500 1498 1496 1494 1492 1490 1488 1485 1481 1470 1462 1462 1462 1461 1460 1457 1455 1452 1449 1446 1443 1440 1437 1434 1431 1429 1426 1423 1421 1419 1417 1415 1413 1412 1411 1410 1409 1408
1494 1492 1490 1488 1485 1483 1481 1479 1475 1469 1458 1453 1454 1454 1452 1450 1448 1445 1441 1438 1435 1432 1429 1427 1424 1421 1418 1416 1413 1411 1408 1406 1405 1403 1402 1401 1400 1399
1487 1485 1483 1481 1478 1476 1473 1471 1468 1464 1455 1446 1447 1446 1444 1442 1439 1437 1433 1430 1427 1425 1422 1419 1416 1413 1411 1408 1405 1402 1400 1398 1396 1394 1393 1392 1391 1390
1480 1478 1476 1473 1470 1468 1465 1462 1459 1456 1451 1442 1438 1438 1436 1434 1431 1428 1425 1423 1420 1417 1414 1412 1409 1406 1403 1400 1397 1395 1392 1389 1387 1385 1383 1382 1381 1380
1473 1471 1468 1466 1462 1460 1457 1453 1450 1448 1444 1438 1431 1430 1427 1426 1423 1420 1417 1415 1412 1409 1407 1404 1401 1399 1396 1393 1390 1387 1384 1381 1379 1376 1375 1373 1372 1371
1465 1463 1460 1458 1454 1451 1448 1445 1442 1439 1435 1431 1425 1422 1419 1418 1416 1412 1408 1406 1403 1401 1399 1396 1394 1391 1388 1385 1382 1379 1376 1373 1370 1368 1366 1364 1363 1362
1457 1455 1452 1449 1446 1444 1440 1437 1434 1430 1427 1423 1418 1414 1411 1410 1408 1405 1401 1397 1394 1393 1389 1387 1385 1382 1379 1377 1374 1371 1368 1365 1362 1360 1358 1356 1354 1353
1448 1445 1443 1440 1437 1435 1432 1429 1427 1423 1419 1416 1411 1407 1404 1403 1400 1398 1394 1390 1385 1385 1382 1378 1377 1373 1371 1368 1365 1363 1360 1357 1355 1352 1350 1348 1346 1345
1439 1436 1434 1431 1429 1425 1422 1419 1417 1415 1413 1409 1404 1400 1397 1395 1393 1390 1387 1383 1379 1377 1375 1369 1368 1365 1363 1360 1358 1355 1352 1350 1347 1344 1342 1340 1338 1337
1431 1428 1425 1422 1420 1417 1413 1409 1406 1404 1403 1400 1396 1392 1390 1388 1386 1383 1379 1375 1371 1369 1368 1363 1359 1357 1354 1352 1350 1347 1345 1342 1340 1337 1335 1332 1331 1329
1423 1420 1417 1414 1411 1409 1405 1400 1396 1394 1392 1390 1387 1385 1382 1380 1379 1375 1371 1368 1363 1361 1360 1357 1352 1350 1346 1344 1342 1340 1338 1336 1333 1330 1328 1326 1324 1323
1414 1411 1409 1406 1403 1400 1397 1392 1388 1384 1382 1380 1378 1375 1373 1372 1370 1369 1365 1362 1358 1354 1352 1351 1347 1344 1339 1336 1335 1334 1331 1329 1327 1324 1322 1320 1319 1318
1405 1402 1399 1397 1394 1391 1389 1385 1380 1377 1374 1371 1368 1366 1364 1363 1361 1360 1358 1356 1352 1349 1347 1345 1342 1339 1337 1332 1329 1328 1326 1323 1321 1319 1317 1316 1314 1314
1397 1393 1390 1388 1385 1382 1379 1375 1373 1370 1366 1363 1360 1357 1356 1355 1353 1352 1350 1348 1346 1344 1341 1340 1337 1334 1331 1328 1324 1322 1321 1319 1317 1315 1313 1311 1310 1309
1389 1385 1382 1379 1376 1372 1369 1367 1364 1361 1358 1355 1352 1350 1349 1348 1346 1344 1342 1340 1339 1337 1335 1334 1332 1329 1327 1324 1321 1318 1316 1314 1313 1311 1310 1308 1307 1306
1380 1376 1373 1370 1367 1363 1360 1358 1355 1353 1351 1348 1345 1344 1342 1341 1339 1338 1336 1334 1332 1330 1329 1328 1326 1324 1322 1319 1317 1314 1313 1311 1309 1308 1307 1305 1304 1303
1372 1368 1364 1361 1357 1354 1352 1349 1347 1345 1343 1341 1340 1338 1336 1335 1333 1332 1331 1329 1327 1324 1323 1322 1321 1319 1317 1315 1313 1310 1309 1307 1306 1305 1304 1303 1302 1301
1365 1360 1356 1353 1350 1347 1345 1342 1340 1339 1337 1336 1334 1333 1331 1329 1328 1327 1325 1324 1322 1320 1319 1317 1316 1314 1313 1310 1310 1307 1305 1304 1303 1302 1302 1301 1299 1299
1357 1352 1349 1346 1344 1341 1339 1336 1334 1333 1331 1330 1328 1327 1326 1324 1323 1321 1320 1319 1317 1316 1315 1313 1312 1311 1309 1307 1305 1305 1303 1302 1301 1300 1300 1299 1298 1297
1349 1346 1343 1340 1337 1335 1332 1330 1328 1326 1325 1324 1323 1321 1320 1319 1318 1316 1315 1314 1313 1312 1310 1309 1309 1308 1307 1305 1303 1301 1301 1300 1299 1298 1298 1297 1296 1296
1341 1339 1336 1333 1330 1328 1326 1324 1322 1320 1319 1318 1317 1316 1315 1314 1312 1311 1310 1310 1309 1308 1306 1305 1305 1304 1303 1302 1301 1299 1298 1298 1297 1297 1296 1296 1295 1295
1334 1331 1328 1326 1323 1321 1319 1317 1316 1314 1313 1312 1310 1310 1309 1308 1307 1306 1305 1305 1304 1303 1302 1301 1301 1300 1300 1299 1297 1296 1296 1295 1295 1295 1295 1295 1295 1294
1327 1324 1321 1318 1316 1314 1312 1310 1309 1307 1306 1305 1304 1303 1303 1302 1301 1301 1300 1300 1299 1299 1298 1297 1297 1297 1296 1296 1295 1294 1294 1293 1293 1293 1293 1293 1293 1293